LiveATC.Net - Listen to live air traffic control over the Internet!


ICAO: OKBK  IATA: KWI   Airport: Kuwait International Airport
City: Kuwait City
Country: Kuwait   Continent: Asia
OKBK METAR Weather: OKBK 182300Z 14003KT CAVOK 17/11 Q1019 NOSIG
OKBK Flight Activity (FlightAware)
OKBK Gnd/Twr/App/Radar
Feed Status: DOWN
Last heard on: 2017-11-18 23:17:03 (0 days 0 hours 3 minutes ago)
OKBK Gnd/Twr/App/Radar Audio Archives
FacilityFrequency
Kuwait Approach121.300
Kuwait Approach124.800
Kuwait Ground121.700
Kuwait Radar (Center)125.300
Kuwait Tower118.300


NOTICE

Unauthorized use prohibited. See LiveATC.net Terms of Service


Find LiveATC Audio Streams


Airport/ARTCC Code

Frequency Search
(e.g., 124.400, 128.75)
Site-wide search
 


Browse LiveATC Feeds
LiveATC Coverage Map
Top 50 LiveATC Feeds
Bad Weather Areas

LiveATC FAQ
Offer a LiveATC Feed
Contact LiveATC.net
Press Inquiries

LiveATC on iPhone
LiveATC on Android

Windows Phone
Windows 8/10

LiveATC Mobile
(Mobile browser)

ATC Audio Archives
Interesting Recordings

LiveATC Forums


Home Page
About LiveATC.net
Make a Donation
Terms of Use
Privacy Policy

Canadian Air Freqs

AIRMETs/SIGMETs

FAA Airport Status
Nat'l Airspace Status
Arrival Demand Charts


Server Software By:
Icecast.org
Liquidsoap